Starlink 31286

operational
NORAD ID: 59082 Int'l Des: 2024-041 Owner: SPXS Country: US Constellation: starlink
LEOCIRCULAR

Über Starlink 31286

Beschreibung wird geladen...

Live-Position

3D-Globus wird geladen...

Nächste Überflüge

Höhenverlauf

Altitude vs Time

uPlot chart will show altitude changes over time

Zweizeiliger Elementsatz

1 59082U 24041J 25258.25567045 .00001498 00000-0 63950-4 0 9990
2 59082 43.0004 221.2461 0000718 251.2837 108.7937 15.27581669 87526
Epoch: 15. Sept. 2025 • Age: 8 hours

Aktueller Status

Höhe 493.4 km
Geschwindigkeit 7.62 km/s
Subsatellitenpunkt -36.69°S, 33.69°W
Startdatum 29. Feb. 2024
Alter 1.5 years
Typ internet

Technische Details

Klassifizierung Payload
Masse 730.00 kg
Trockenmasse 700.00 kg
Gesamtmasse 730.00 kg
Länge 0.30 m
Durchmesser 4.10 m
Spannweite 29.00 m
Form Box + pan
Hersteller SPXS
Bus-Typ Starlink V2M
Phasenstatus In Orbit
Besitzer/Staat SPXS/US

Große Konstellationen

Loading constellations...